Regional Weather Roundup
Issued by NWS

Home | Current Version | Previous Version | Graphics & Text | Print | Product List | Glossary On
Versions: 1 2 3 4 5 6 7 8 9 10 11 12 13 14 15 16 17 18 19 20 21 22 23 24 25 26 27 28 29 30 31 32 33 34 35 36 37 38 39 40 41 42 43 44 45 46 47 48 49 50
000
ASUS43 KDTX 282101
RWRMI
MICHIGAN HOURLY REGIONAL WEATHER ROUNDUP
NATIONAL WEATHER SERVICE DETROIT/PONTIAC MI
500 PM EDT SAT MAY 28 2016

NOTE: "FAIR" INDICATES FEW OR NO CLOUDS BELOW 12,000 FEET WITH NO
SIGNIFICANT WEATHER AND/OR OBSTRUCTION TO VISIBILITY.

MIZ047>049-052>055-059>063-066>070-074>076-081>083-282200-
SOUTHEAST LOWER MICHIGAN

CITY           SKY/WX    TMP DP  RH WIND       PRES   REMARKS
ADRIAN         CLOUDY    86  56  35 SW20G26   30.01F
ALMA           SUNNY     82  58  45 S16G29    29.96S
ANN ARBOR      CLOUDY    82  61  48 SW12      30.00S
BAD AXE        CLOUDY    79  67  68 S12G17    29.99S
CARO           CLOUDY    83  62  49 SW9       29.98R
DETROIT CITY   PTSUNNY   87  64  46 SW13      30.00S
DETROIT        CLOUDY    81  66  60 SE13G22   30.01S
FLINT          MOSUNNY   87  56  34 SW12      29.99S
GROSSE ILE     CLOUDY    81  66  61 SE10      30.00F
HILLSDALE      MOSUNNY   83  55  38 S8        30.01S HAZE
HOWELL         CLOUDY    85  56  36 S14G20    29.99F

CITY           SKY/WX    TMP DP  RH WIND       PRES   REMARKS
JACKSON        MOSUNNY   84  61  45 S15G22    29.99F
LAMBERTVILLE   MOSUNNY   86  60  40 SW10G18   30.01S
LANSING        MOSUNNY   84  63  49 S15       29.98S
LAPEER         FAIR      86  57  37 SW12      29.99S
MASON          SUNNY     84  61  44 S12G17    29.98S
MONROE         MOSUNNY   86  61  42 SW12G22   29.99F
MT. CLEMENS    PTSUNNY   81  65  59 CALM      30.01R
PONTIAC        CLOUDY    86  57  37 SW14G25   30.00R
PORT HOPE        N/A     79  71  76 S8G16     29.96F
PORT HURON     SUNNY     84  66  54 S14       30.00F
TRI CITIES     SUNNY     85  64  49 SW13G22   29.96F
MIDLAND        PTSUNNY   84  63  48 SW17G26   29.94F
SAGINAW HB     CLOUDY    86  57  37 S16       29.96F
$$
MIZ043>046-050>051-056>058-064>065-071>073-077>080-282200-
SOUTHWEST LOWER MICHIGAN

CITY           SKY/WX    TMP DP  RH WIND       PRES   REMARKS
BATTLE CREEK   MOSUNNY   84  60  44 S16G24    29.97F
BENTON HARBOR  CLOUDY    81  61  50 S14G21    29.94F
BIG RAPIDS     CLOUDY    78  65  65 SW7       29.94S
COLDWATER      PTSUNNY   84  57  40 S10G17    29.98S
FREMONT        PTSUNNY   78  65  64 SW15G26   29.94R
HOLLAND        CLOUDY    81  65  58 SW12      29.95F
GRAND RAPIDS   LGT RAIN  83  63  50 SW18      29.96R
IONIA          PTSUNNY   83  58  41 SW15G22   29.95F
KALAMAZOO      CLOUDY    85  63  47 SW9       29.96F
LUDINGTON      MOSUNNY   77  66  68 S20G29    29.91S
MARSHALL       MOSUNNY   85  59  41 S12       29.97S
MOUNT PLEASANT CLOUDY    82  63  52 S13G20    29.94F
MUSKEGON       CLOUDY    75  62  64 SW15      29.94S
SOUTH HAVEN    CLOUDY    81  61  51 SW10G18   29.94F
$$
MIZ016>042-282200-
NORTHERN LOWER MICHIGAN

CITY           SKY/WX    TMP DP  RH WIND       PRES   REMARKS
ALPENA         CLOUDY    85  61  44 SW12G23   29.92S
BEAVER ISLAND  MOSUNNY   73  62  68 SW16G24   29.89F
BELLAIRE       SUNNY     85  59  41 SW8G22    29.89S
CADILLAC       PTSUNNY   79  65  60 S14G26    29.94S
CHARLEVOIX     MOSUNNY   74  64  69 W10       29.92S
FRANKFORT      MOSUNNY   76  64  67 SW14G26   29.89F
GAYLORD        MOSUNNY   81  61  50 S16G25    29.93S
GRAYLING       PTSUNNY   82  63  52 SW9G23    29.94F
HARBOR SPRINGS PTSUNNY   80  64  58 SW5       29.89S
HOUGHTON LAKE  CLOUDY    81  62  52 S13G23    29.95F
MANISTEE       CLOUDY    79  63  57 S16G25    29.91S
OSCODA         MOSUNNY   86  60  40 S18G28    29.95S
PELLSTON       PTSUNNY   83  64  52 SW7       29.90S
ROGERS CITY    CLOUDY    83  62  49 S12       29.92S
TRAVERSE CITY  PTSUNNY   83  61  47 VRB7G23   29.87S
$$
MIZ007>008-015-282200-
EASTERN UPPER MICHIGAN

CITY           SKY/WX    TMP DP  RH WIND       PRES   REMARKS
KINROSS          N/A     73  68  83 S7        29.91S
MACKINAC ISLAN MOSUNNY   73  63  71 NW6       29.90S
NEWBERRY       CLOUDY    73  65  75 S24G33    29.88S
S. S. MARIE    CLOUDY    73  67  81 SE6       29.90S
MUNISING         N/A     72  63  73 S13G22    29.81R
$$
MIZ004>006-011>014-085-282200-
CENTRAL UPPER MICHIGAN

CITY           SKY/WX    TMP DP  RH WIND       PRES   REMARKS
MANISTIQUE     CLOUDY    58  57  94 SW7       29.88S FOG
ESCANABA       SUNNY     70  61  73 S16G24    29.81F
MENOMINEE      MOSUNNY   79  67  66 S12G24    29.80F
SAWYER-GWINN   CLOUDY    72  64  78 S16G22    29.80F
$$
MIZ001>003-009>011-084-282200-
WESTERN UPPER MICHIGAN

CITY           SKY/WX    TMP DP  RH WIND       PRES   REMARKS
IRON MOUNTAIN  PTSUNNY   76  64  66 S14       29.77F
HOUGHTON       LGT RAIN  65  63  93 NE5       29.76F FOG
COPPER HARBOR    N/A     64  63  96 CALM      29.77S
IRONWOOD       CLOUDY    61  61 100 CALM      29.74R
$$

ABBREVIATIONS USED IN REMARKS
   TC - TEMPERATURE IN CELSIUS
  WCI - WIND CHILL INDEX
   HX - HEAT INDEX
  VSB - VISIBILITY





USA.gov is the U.S. government's official web portal to all federal, state and local government web resources and services.